User: anonymous   Login
Location: Hackbridge
(51.3833°N, 0.1500°W)
Time: 06:33:10
(UTC+00:00)
Language:

COSMOS 2406 - Orbit

View from above orbital plane
View from above orbital plane
View from above satellite
View from above satellite

Ground track
Ground track

The orbit data is extracted from the following two-line orbital elements,

1 28352U 04021A   19339.45058300 -.00000061  00000-0 -74682-5 0  9998
2 28352  71.0075  42.7596 0015030 194.4514 165.6179 14.11682991798036
Epoch (UTC): 05 December 2019 10:48:50
Eccentricity: 0.0015030
inclination: 71.0075°
perigee height: 843 km
apogee height: 864 km
right ascension of ascending node: 42.7596°
argument of perigee: 194.4514°
revolutions per day: 14.11682991
mean anomaly at epoch: 165.6179°
orbit number at epoch: 79803

The dashed part of the orbit path shows where the satellite is in the earth's shadow,  

DLR